TimeAKST,TemperatureF,Dew PointF,Humidity,Sea Level PressureIn,VisibilityMPH,Wind Direction,Wind SpeedMPH,Gust SpeedMPH,PrecipitationIn,Events,Conditions,WindDirDegrees,DateUTC
12:55 AM,-9.4,-17.5,68,30.04,10.0,NNE,10.4,20.7,N/A,,Partly Cloudy,30,2013-01-25 09:55:00
1:55 AM,-10.8,-18.6,69,30.05,10.0,ENE,8.1,-,N/A,,Partly Cloudy,60,2013-01-25 10:55:00
3:55 AM,-13.2,-19.7,73,30.06,10.0,East,5.8,-,N/A,,Partly Cloudy,90,2013-01-25 12:55:00
4:55 AM,-13.0,-19.5,73,30.06,10.0,NE,4.6,-,N/A,,Partly Cloudy,40,2013-01-25 13:55:00
5:55 AM,-12.6,-19.7,71,30.06,10.0,ENE,8.1,-,N/A,,Mostly Cloudy,60,2013-01-25 14:55:00
6:55 AM,-10.8,-18.6,69,30.07,10.0,NE,9.2,-,N/A,,Partly Cloudy,40,2013-01-25 15:55:00
7:55 AM,-10.3,-18.6,67,30.06,10.0,NE,6.9,-,N/A,,Partly Cloudy,50,2013-01-25 16:55:00
8:55 AM,-9.8,-18.8,65,30.06,10.0,NE,4.6,-,N/A,,Scattered Clouds,50,2013-01-25 17:55:00
9:55 AM,-11.0,-19.7,66,30.07,10.0,Variable,2.3,-,N/A,,Partly Cloudy,0,2013-01-25 18:55:00
10:55 AM,-12.5,-20.6,67,30.08,10.0,NE,3.5,-,N/A,,Clear,50,2013-01-25 19:55:00
11:55 AM,-10.8,-19.8,64,30.09,10.0,SE,1.2,-,N/A,,Clear,130,2013-01-25 20:55:00
12:55 PM,-9.9,-19.1,64,30.09,10.0,Variable,1.2,-,N/A,,Clear,0,2013-01-25 21:55:00
1:55 PM,-9.6,-18.4,65,30.09,10.0,Variable,3.5,-,N/A,,Clear,0,2013-01-25 22:55:00
2:55 PM,-8.9,-17.9,65,30.09,10.0,ENE,4.6,-,N/A,,Clear,70,2013-01-25 23:55:00
3:55 PM,-8.9,-17.9,65,30.10,10.0,ENE,4.6,-,N/A,,Clear,60,2013-01-26 00:55:00
4:55 PM,-9.6,-18.2,66,30.11,10.0,NE,3.5,-,N/A,,Clear,40,2013-01-26 01:55:00
5:55 PM,-10.8,-19.1,67,30.11,10.0,East,2.3,-,N/A,,Partly Cloudy,80,2013-01-26 02:55:00
6:55 PM,-10.3,-18.2,68,30.11,10.0,NNE,4.6,-,N/A,,Partly Cloudy,30,2013-01-26 03:55:00
7:55 PM,-11.0,-18.0,71,30.12,10.0,NE,5.8,-,N/A,,Scattered Clouds,40,2013-01-26 04:55:00
8:55 PM,-10.8,-18.2,70,30.12,10.0,NNE,5.8,-,N/A,,Partly Cloudy,30,2013-01-26 05:55:00
9:55 PM,-11.2,-18.6,70,30.12,10.0,NE,5.8,-,N/A,,Partly Cloudy,40,2013-01-26 06:55:00
10:55 PM,-11.4,-18.8,70,30.13,10.0,ENE,4.6,-,N/A,,Scattered Clouds,60,2013-01-26 07:55:00
11:55 PM,-12.3,-18.8,73,30.14,10.0,SW,2.3,-,N/A,,Partly Cloudy,230,2013-01-26 08:55:00